Tracking 17780 objects as of 29-July-2016
HD Live streaming from Space Station
objects crossing your sky now

FALCON 9 R/B

Track FALCON 9 R/B now!
10-day predictions


NORAD ID: 37253
Int'l Code: 2010-066K
Perigee: 297.8 km
Apogee: 10,330.8 km
Inclination: 34.5 °
Period: 209.5 minutes
Semi major axis: 11685 km
RCS: 20.0149 m2 (large)
Launch date: December 8, 2010
Source: United States (US)
Launch site: AIR FORCE EASTERN TEST RANGE (AFETR)

Note: This is a ROCKET BODY
Your satellite tracking list
Your tracking list is empty





NASA's NSSDC Master Catalog

Two Line Element Set (TLE):
1 37253U 10066K   16211.43782074  .00001628  00000-0  15082-3 0  9995
2 37253  34.5299 111.5553 4293023 224.2951  92.1075  6.87297069138340
Source of the keplerian elements: AFSPC

N2YO: 843